Location: Vesunti
(61.5000°N, 22.8333°E)
Time: 20:14:23
(UTC+00:00)

Cosmos 2237 Rocket - Pass Details

Date: 17 February 2020
Orbit: 835 x 849 km, 71.0° (Epoch: 30 March)

Event Time Altitude Azimuth Distance (km) Brightness Sun altitude
Exits shadow 04:03:37 22° 248° (WSW) 1,777 3.3 -15.3°
Maximum altitude 04:07:17 60° 322° (NW) 958 2.3 -14.9°
Drops below altitude 10° 04:12:53 10° 43° (NE) 2,462 5.2 -14.2°
Sets 04:15:23 0° 47° (NE) 3,399 6.1 -13.9°
